DAL4547 MMAA-KLAX

Flight info

Callsign DAL4547
Flight time N/A
Altitude 36000
Route AGLON1B AGLON UT145 UPN UJ3 MZT UJ7 PPE J93 ASUTA DCT AMMOR OLAAA2
Aircraft A20N/M-SDE2E3FGHIRWXY/LB1

Departure

Time 2026-05-06 00:41
Airport General Juan N. Álvarez International Airport (MMAA)

Arrival

Time N/A
Airport Los Angeles International Airport (KLAX)
Time Latitude Longitude Altitude Speed Heading
2026-05-06 00:11 16.76171 -99.75674 24 ft 0 kts 18°
2026-05-06 00:32 16.76149 -99.75682 26 ft 10 kts 17°
2026-05-06 00:32 16.76091 -99.75711 26 ft 10 kts 60°
2026-05-06 00:32 16.76084 -99.75731 24 ft 0 kts 101°
2026-05-06 00:32 16.76083 -99.75731 24 ft 0 kts 102°
2026-05-06 00:33 16.76063 -99.75666 23 ft 14 kts 110°
2026-05-06 00:34 16.76044 -99.75613 24 ft 16 kts 110°
2026-05-06 00:34 16.76028 -99.75566 24 ft 0 kts 110°
2026-05-06 00:34 16.76027 -99.75563 24 ft 5 kts 111°
2026-05-06 00:34 16.75987 -99.75435 24 ft 12 kts 96°
2026-05-06 00:35 16.75960 -99.75350 24 ft 7 kts 126°
2026-05-06 00:35 16.75959 -99.75349 22 ft 0 kts 139°
2026-05-06 00:35 16.75950 -99.75344 22 ft 0 kts 157°
2026-05-06 00:35 16.75896 -99.75324 22 ft 5 kts 118°
2026-05-06 00:36 16.75868 -99.75242 24 ft 20 kts 109°
2026-05-06 00:36 16.75818 -99.75091 21 ft 23 kts 109°
2026-05-06 00:36 16.75764 -99.74927 21 ft 24 kts 108°
2026-05-06 00:36 16.75710 -99.74756 24 ft 25 kts 108°
2026-05-06 00:37 16.75655 -99.74581 23 ft 26 kts 108°
2026-05-06 00:37 16.75598 -99.74401 26 ft 26 kts 108°
2026-05-06 00:37 16.75540 -99.74219 25 ft 27 kts 108°
2026-05-06 00:37 16.75480 -99.74032 24 ft 27 kts 108°
2026-05-06 00:38 16.75419 -99.73842 23 ft 28 kts 108°
2026-05-06 00:38 16.75356 -99.73648 22 ft 28 kts 108°
2026-05-06 00:38 16.75293 -99.73452 24 ft 29 kts 108°
2026-05-06 00:38 16.75241 -99.73345 23 ft 0 kts 171°
2026-05-06 00:39 16.75191 -99.73346 23 ft 19 kts 184°
2026-05-06 00:39 16.75082 -99.73377 23 ft 0 kts 243°
2026-05-06 00:39 16.75073 -99.73423 22 ft 0 kts 282°
2026-05-06 00:40 16.75140 -99.73604 20 ft 61 kts 289°
2026-05-06 00:40 16.75360 -99.74273 23 ft 132 kts 286°
2026-05-06 00:40 16.75715 -99.75347 257 ft 166 kts 289°
2026-05-06 00:41 16.76111 -99.76473 923 ft 171 kts 290°
2026-05-06 00:41 16.76554 -99.77728 1424 ft 197 kts 289°
2026-05-06 00:41 16.76983 -99.79125 2212 ft 210 kts 286°
2026-05-06 00:41 16.77423 -99.80706 2771 ft 238 kts 287°
2026-05-06 00:42 16.77943 -99.82422 3530 ft 256 kts 288°
2026-05-06 00:42 16.78496 -99.84207 4520 ft 261 kts 288°
2026-05-06 00:42 16.79103 -99.86111 4856 ft 296 kts 293°
2026-05-06 00:42 16.80339 -99.87947 5112 ft 326 kts 317°
2026-05-06 00:43 16.82331 -99.89240 5452 ft 352 kts 339°
2026-05-06 00:43 16.84773 -99.89911 5792 ft 375 kts 348°
2026-05-06 00:43 16.87366 -99.90391 6570 ft 381 kts 349°
2026-05-06 00:43 16.89961 -99.91033 7331 ft 387 kts 339°
2026-05-06 00:44 16.92285 -99.92349 8173 ft 390 kts 324°
2026-05-06 00:44 16.94442 -99.94083 9081 ft 393 kts 320°
2026-05-06 00:44 16.96564 -99.95907 9891 ft 398 kts 320°
2026-05-06 00:44 16.98730 -99.97735 10654 ft 404 kts 321°
2026-05-06 00:45 17.00952 -99.99548 11465 ft 408 kts 322°
2026-05-06 00:45 17.03222 -100.01357 12240 ft 413 kts 322°
2026-05-06 00:45 17.05530 -100.03172 13027 ft 417 kts 323°
2026-05-06 00:45 17.07858 -100.04994 13799 ft 422 kts 323°
2026-05-06 00:46 17.10219 -100.06841 14574 ft 426 kts 323°
2026-05-06 00:46 17.12604 -100.08708 15339 ft 431 kts 323°
2026-05-06 00:46 17.15019 -100.10600 16031 ft 437 kts 323°
2026-05-06 00:46 17.17463 -100.12516 16802 ft 440 kts 323°
2026-05-06 00:47 17.19928 -100.14449 17516 ft 446 kts 323°
2026-05-06 00:47 17.22419 -100.16404 18197 ft 451 kts 323°
2026-05-06 00:47 17.24974 -100.18410 18288 ft 470 kts 323°
2026-05-06 00:47 17.27640 -100.20503 18636 ft 477 kts 323°
2026-05-06 00:48 17.30241 -100.22545 19433 ft 455 kts 323°
2026-05-06 00:48 17.32710 -100.24484 19508 ft 431 kts 323°
2026-05-06 00:48 17.35046 -100.26321 19563 ft 409 kts 323°
2026-05-06 00:48 17.37258 -100.28061 19676 ft 387 kts 323°
2026-05-06 00:49 17.39392 -100.29741 19803 ft 389 kts 322°
2026-05-06 00:49 17.41562 -100.31461 19928 ft 391 kts 321°
2026-05-06 00:49 17.43671 -100.33245 20053 ft 390 kts 320°
2026-05-06 00:49 17.45765 -100.35073 20180 ft 392 kts 320°
2026-05-06 00:50 17.47873 -100.36917 20309 ft 393 kts 320°
2026-05-06 00:50 17.49968 -100.38738 20426 ft 396 kts 320°
2026-05-06 00:50 17.52104 -100.40585 20564 ft 399 kts 320°
2026-05-06 00:50 17.54247 -100.42431 20679 ft 400 kts 320°
2026-05-06 00:51 17.56411 -100.44294 20803 ft 405 kts 320°
2026-05-06 00:51 17.58586 -100.46166 20934 ft 404 kts 320°
2026-05-06 00:51 17.60757 -100.48035 21054 ft 404 kts 320°
2026-05-06 00:51 17.62922 -100.49899 21169 ft 403 kts 320°
2026-05-06 00:52 17.65091 -100.51769 21305 ft 405 kts 320°
2026-05-06 00:52 17.67281 -100.53655 21427 ft 409 kts 320°
2026-05-06 00:52 17.69476 -100.55548 21556 ft 408 kts 320°
2026-05-06 00:52 17.71662 -100.57433 21679 ft 405 kts 320°
2026-05-06 00:53 17.73836 -100.59309 21808 ft 404 kts 320°
2026-05-06 00:53 17.76005 -100.61180 21931 ft 404 kts 320°
2026-05-06 00:53 17.78182 -100.63060 22057 ft 407 kts 320°
2026-05-06 00:53 17.80369 -100.64948 22183 ft 408 kts 320°
2026-05-06 00:54 17.82550 -100.66831 22306 ft 405 kts 320°
2026-05-06 00:54 17.84727 -100.68710 22434 ft 406 kts 320°
2026-05-06 00:54 17.86910 -100.70595 22558 ft 407 kts 320°
2026-05-06 00:54 17.89102 -100.72490 22687 ft 410 kts 320°
2026-05-06 00:55 17.91307 -100.74396 22807 ft 410 kts 320°
2026-05-06 00:55 17.93502 -100.76294 22933 ft 407 kts 320°
2026-05-06 00:55 17.95698 -100.78194 23059 ft 412 kts 320°
2026-05-06 00:55 17.97909 -100.80106 23187 ft 411 kts 320°
2026-05-06 00:56 18.00110 -100.82009 23308 ft 409 kts 320°
2026-05-06 00:56 18.02314 -100.83916 23434 ft 413 kts 320°
2026-05-06 00:56 18.04550 -100.85851 23560 ft 417 kts 320°
2026-05-06 00:56 18.06775 -100.87778 23686 ft 413 kts 320°
2026-05-06 00:57 18.08962 -100.89671 23817 ft 412 kts 320°
2026-05-06 00:57 18.11174 -100.91588 23931 ft 412 kts 320°
2026-05-06 00:57 18.13395 -100.93514 24058 ft 416 kts 320°
2026-05-06 00:57 18.15629 -100.95453 24186 ft 417 kts 320°
2026-05-06 00:58 18.17857 -100.97387 24303 ft 415 kts 320°
2026-05-06 00:58 18.20088 -100.99326 24434 ft 417 kts 320°
2026-05-06 00:58 18.22328 -101.01272 24559 ft 416 kts 320°
2026-05-06 00:58 18.24559 -101.03212 24685 ft 417 kts 320°
2026-05-06 00:59 18.26801 -101.05161 24810 ft 418 kts 320°
2026-05-06 00:59 18.29041 -101.07109 24935 ft 419 kts 320°
2026-05-06 00:59 18.31291 -101.09067 25061 ft 421 kts 320°
2026-05-06 00:59 18.33550 -101.11033 25185 ft 422 kts 320°
2026-05-06 01:00 18.35815 -101.13005 25310 ft 423 kts 320°
2026-05-06 01:00 18.38088 -101.14986 25436 ft 424 kts 320°
2026-05-06 01:00 18.40010 -101.16660 25546 ft 424 kts 320°
2026-05-06 01:00 18.40154 -101.16786 25553 ft 424 kts 320°
2026-05-06 01:01 18.42429 -101.18769 25673 ft 424 kts 320°
2026-05-06 01:01 18.43931 -101.20078 25758 ft 424 kts 320°
2026-05-06 01:01 18.46207 -101.22063 25883 ft 425 kts 320°
2026-05-06 01:01 18.48494 -101.24059 26011 ft 428 kts 320°
2026-05-06 01:02 18.50782 -101.26055 26134 ft 426 kts 320°
2026-05-06 01:02 18.53060 -101.28044 26260 ft 425 kts 320°
2026-05-06 01:02 18.55337 -101.30033 26382 ft 426 kts 320°
2026-05-06 01:02 18.57625 -101.32032 26509 ft 428 kts 320°
2026-05-06 01:03 18.59924 -101.34041 26636 ft 431 kts 320°
2026-05-06 01:03 18.62234 -101.36060 26794 ft 432 kts 320°
2026-05-06 01:03 18.64561 -101.38094 26971 ft 436 kts 320°
2026-05-06 01:03 18.66894 -101.40135 27143 ft 437 kts 320°
2026-05-06 01:04 18.69243 -101.42191 27322 ft 441 kts 320°
2026-05-06 01:04 18.71604 -101.44258 27493 ft 440 kts 320°
2026-05-06 01:04 18.73962 -101.46323 27675 ft 441 kts 320°
2026-05-06 01:04 18.76313 -101.48383 27844 ft 440 kts 320°
2026-05-06 01:05 18.78681 -101.50458 28024 ft 444 kts 320°
2026-05-06 01:05 18.81053 -101.52538 28195 ft 445 kts 320°
2026-05-06 01:05 18.83438 -101.54630 28374 ft 445 kts 320°
2026-05-06 01:05 18.85822 -101.56721 28547 ft 446 kts 320°
2026-05-06 01:06 18.88214 -101.58821 28720 ft 448 kts 320°
2026-05-06 01:06 18.90620 -101.60934 28897 ft 450 kts 320°
2026-05-06 01:06 18.93031 -101.63051 29074 ft 451 kts 320°
2026-05-06 01:06 18.95446 -101.65174 29247 ft 453 kts 320°
2026-05-06 01:07 18.97879 -101.67313 29423 ft 456 kts 320°
2026-05-06 01:07 19.00281 -101.69425 29595 ft 455 kts 320°
2026-05-06 01:07 19.02713 -101.71564 29771 ft 455 kts 320°
2026-05-06 01:07 19.05147 -101.73707 29946 ft 457 kts 320°
2026-05-06 01:08 19.07597 -101.75864 30122 ft 460 kts 320°
2026-05-06 01:08 19.10057 -101.78031 30296 ft 461 kts 320°
2026-05-06 01:08 19.12524 -101.80205 30471 ft 462 kts 320°
2026-05-06 01:08 19.14996 -101.82385 30647 ft 463 kts 320°
2026-05-06 01:09 19.17465 -101.84561 30823 ft 461 kts 320°
2026-05-06 01:09 19.19925 -101.86732 30973 ft 461 kts 320°
2026-05-06 01:09 19.22382 -101.88901 30999 ft 460 kts 320°
2026-05-06 01:10 19.27303 -101.93247 31000 ft 462 kts 320°
2026-05-06 01:10 19.32232 -101.97604 31001 ft 463 kts 320°
2026-05-06 01:11 19.37201 -102.01999 31001 ft 467 kts 320°
2026-05-06 01:11 19.41920 -102.06712 31001 ft 466 kts 313°
2026-05-06 01:12 19.46394 -102.11713 31001 ft 469 kts 313°
2026-05-06 01:12 19.50900 -102.16735 30997 ft 470 kts 313°
2026-05-06 01:13 19.55410 -102.21771 31001 ft 471 kts 313°
2026-05-06 01:13 19.59923 -102.26817 31001 ft 472 kts 313°
2026-05-06 01:14 19.66683 -102.34384 31000 ft 470 kts 313°
2026-05-06 01:14 19.71185 -102.39428 31000 ft 470 kts 313°
2026-05-06 01:15 19.75669 -102.44458 31001 ft 469 kts 313°
2026-05-06 01:15 19.80143 -102.49480 30997 ft 466 kts 313°
2026-05-06 01:16 19.84608 -102.54497 31000 ft 468 kts 313°
2026-05-06 01:16 19.89076 -102.59521 31001 ft 467 kts 313°
2026-05-06 01:17 19.93541 -102.64547 31001 ft 467 kts 313°
2026-05-06 01:17 19.98004 -102.69575 31000 ft 467 kts 313°
2026-05-06 01:18 20.02450 -102.74587 31001 ft 466 kts 313°
2026-05-06 01:18 20.06909 -102.79620 30998 ft 467 kts 313°
2026-05-06 01:19 20.11371 -102.84660 31000 ft 466 kts 313°
2026-05-06 01:19 20.15809 -102.89677 31002 ft 466 kts 313°
2026-05-06 01:20 20.20246 -102.94699 31001 ft 466 kts 313°
2026-05-06 01:20 20.24685 -102.99726 31000 ft 466 kts 313°
2026-05-06 01:21 20.29122 -103.04755 31001 ft 466 kts 313°
2026-05-06 01:21 20.33552 -103.09782 31001 ft 466 kts 313°
2026-05-06 01:22 20.37999 -103.14832 31001 ft 467 kts 313°
2026-05-06 01:22 20.42428 -103.19867 31000 ft 465 kts 313°
2026-05-06 01:23 20.46861 -103.24909 31001 ft 466 kts 313°
2026-05-06 01:23 20.51289 -103.29951 31001 ft 466 kts 313°
2026-05-06 01:24 20.55763 -103.34947 31001 ft 466 kts 314°
2026-05-06 01:24 20.60311 -103.39877 31000 ft 466 kts 314°
2026-05-06 01:25 20.64853 -103.44823 31000 ft 467 kts 314°
2026-05-06 01:25 20.69398 -103.49795 31001 ft 468 kts 314°
2026-05-06 01:26 20.73891 -103.54717 30999 ft 466 kts 314°
2026-05-06 01:26 20.78421 -103.59685 31001 ft 467 kts 314°
2026-05-06 01:27 20.82949 -103.64655 31002 ft 466 kts 314°
2026-05-06 01:27 20.87445 -103.69594 31002 ft 463 kts 314°
2026-05-06 01:28 20.91930 -103.74526 30998 ft 462 kts 314°
2026-05-06 01:28 20.96373 -103.79416 31002 ft 464 kts 314°
2026-05-06 01:29 21.00875 -103.84374 31000 ft 464 kts 314°
2026-05-06 01:29 21.05344 -103.89302 31002 ft 462 kts 314°
2026-05-06 01:30 21.09813 -103.94234 31002 ft 460 kts 314°
2026-05-06 01:30 21.14277 -103.99164 31001 ft 461 kts 314°
2026-05-06 01:31 21.18758 -104.04118 31001 ft 464 kts 314°
2026-05-06 01:31 21.23216 -104.09050 31000 ft 462 kts 314°
2026-05-06 01:32 21.27735 -104.14062 30999 ft 468 kts 314°
2026-05-06 01:32 21.32211 -104.19031 30998 ft 464 kts 314°
2026-05-06 01:33 21.36749 -104.24071 31001 ft 471 kts 314°
2026-05-06 01:33 21.41293 -104.29117 31001 ft 471 kts 314°
2026-05-06 01:34 21.45809 -104.34137 31002 ft 463 kts 314°
2026-05-06 01:34 21.50247 -104.39075 31000 ft 459 kts 314°
2026-05-06 01:35 21.54720 -104.44058 31001 ft 467 kts 314°
2026-05-06 01:35 21.59197 -104.49048 30999 ft 458 kts 314°
2026-05-06 01:36 21.63618 -104.53982 31001 ft 464 kts 314°
2026-05-06 01:36 21.68063 -104.58948 30998 ft 458 kts 314°
2026-05-06 01:37 21.72479 -104.63885 31001 ft 457 kts 314°
2026-05-06 01:37 21.76888 -104.68819 31001 ft 457 kts 314°
2026-05-06 01:38 21.81301 -104.73761 30997 ft 459 kts 313°
2026-05-06 01:38 21.85715 -104.78708 31000 ft 458 kts 313°
2026-05-06 01:39 21.90158 -104.83696 31001 ft 462 kts 313°
2026-05-06 01:39 21.94603 -104.88691 31002 ft 460 kts 313°
2026-05-06 01:40 21.99020 -104.93659 30999 ft 458 kts 313°
2026-05-06 01:40 22.03411 -104.98602 31001 ft 457 kts 313°
2026-05-06 01:41 22.07043 -105.02695 31001 ft 457 kts 313°
2026-05-06 01:41 22.11434 -105.07648 31001 ft 457 kts 313°
2026-05-06 01:42 22.15382 -105.12104 31001 ft 456 kts 313°
2026-05-06 01:42 22.19778 -105.17071 31000 ft 457 kts 313°
2026-05-06 01:43 22.24158 -105.22026 31001 ft 457 kts 313°
2026-05-06 01:43 22.28540 -105.26986 30997 ft 456 kts 313°
2026-05-06 01:44 22.32917 -105.31946 31002 ft 457 kts 313°
2026-05-06 01:44 22.37297 -105.36913 31000 ft 456 kts 313°
2026-05-06 01:45 22.41668 -105.41877 31001 ft 456 kts 313°
2026-05-06 01:45 22.46008 -105.46808 31001 ft 456 kts 313°
2026-05-06 01:46 22.50377 -105.51778 31000 ft 456 kts 313°
2026-05-06 01:46 22.54743 -105.56750 31001 ft 456 kts 313°
2026-05-06 01:47 22.59108 -105.61726 30998 ft 456 kts 313°
2026-05-06 01:47 22.63472 -105.66705 31001 ft 456 kts 313°
2026-05-06 01:48 22.67834 -105.71686 30998 ft 456 kts 313°
2026-05-06 01:48 22.72193 -105.76670 30997 ft 456 kts 313°
2026-05-06 01:49 22.76553 -105.81659 31001 ft 456 kts 313°
2026-05-06 01:49 22.80909 -105.86648 31000 ft 456 kts 313°
2026-05-06 01:50 22.85266 -105.91644 31001 ft 456 kts 313°
2026-05-06 01:50 22.89621 -105.96643 30999 ft 456 kts 313°
2026-05-06 01:51 22.93974 -106.01644 31001 ft 456 kts 313°
2026-05-06 01:51 22.98324 -106.06646 31001 ft 456 kts 313°
2026-05-06 01:52 23.02672 -106.11652 31135 ft 456 kts 313°
2026-05-06 01:52 23.04846 -106.14157 31307 ft 456 kts 313°
2026-05-06 01:52 23.07018 -106.16660 31487 ft 455 kts 313°
2026-05-06 01:53 23.09189 -106.19165 31647 ft 455 kts 313°
2026-05-06 01:53 23.11358 -106.21667 31836 ft 455 kts 313°
2026-05-06 01:53 23.13526 -106.24169 32011 ft 454 kts 313°
2026-05-06 01:53 23.15763 -106.26587 32182 ft 454 kts 318°
2026-05-06 01:54 23.18238 -106.28718 32355 ft 454 kts 325°
2026-05-06 01:54 23.20820 -106.30618 32534 ft 454 kts 326°
2026-05-06 01:54 23.23428 -106.32546 32708 ft 454 kts 325°
2026-05-06 01:54 23.26037 -106.34483 32882 ft 454 kts 325°
2026-05-06 01:55 23.28641 -106.36419 33057 ft 453 kts 325°
2026-05-06 01:55 23.31246 -106.38355 33231 ft 453 kts 325°
2026-05-06 01:55 23.33835 -106.40279 33402 ft 453 kts 325°
2026-05-06 01:55 23.36433 -106.42211 33577 ft 452 kts 325°
2026-05-06 01:56 23.39029 -106.44141 33747 ft 452 kts 325°
2026-05-06 01:56 23.41624 -106.46071 33927 ft 451 kts 325°
2026-05-06 01:56 23.44214 -106.48000 34104 ft 451 kts 325°
2026-05-06 01:56 23.46804 -106.49928 34277 ft 451 kts 325°
2026-05-06 01:57 23.49389 -106.51853 34446 ft 450 kts 325°
2026-05-06 01:57 23.51972 -106.53778 34624 ft 450 kts 325°
2026-05-06 01:57 23.54556 -106.55705 34796 ft 450 kts 325°
2026-05-06 01:57 23.57135 -106.57630 34973 ft 449 kts 325°
2026-05-06 01:58 23.59714 -106.59555 35147 ft 449 kts 325°
2026-05-06 01:58 23.62291 -106.61481 35322 ft 450 kts 325°
2026-05-06 01:58 23.64878 -106.63414 35488 ft 451 kts 325°
2026-05-06 01:58 23.67461 -106.65346 35672 ft 450 kts 325°
2026-05-06 01:59 23.70039 -106.67275 35842 ft 449 kts 325°
2026-05-06 01:59 23.72609 -106.69200 35981 ft 448 kts 325°
2026-05-06 01:59 23.77744 -106.73047 36000 ft 446 kts 325°
2026-05-06 02:00 23.82863 -106.76885 35999 ft 447 kts 325°
2026-05-06 02:00 23.87990 -106.80734 35999 ft 447 kts 325°
2026-05-06 02:01 23.93109 -106.84580 35998 ft 447 kts 325°
2026-05-06 02:01 23.98232 -106.88433 36003 ft 447 kts 325°
2026-05-06 02:02 24.03325 -106.92265 36008 ft 447 kts 325°
2026-05-06 02:02 24.08456 -106.96128 36006 ft 448 kts 325°
2026-05-06 02:03 24.13591 -106.99999 36007 ft 448 kts 325°
2026-05-06 02:03 24.18724 -107.03872 36011 ft 448 kts 325°
2026-05-06 02:04 24.23856 -107.07748 36010 ft 448 kts 325°
2026-05-06 02:04 24.28987 -107.11628 36009 ft 448 kts 325°
2026-05-06 02:05 24.34117 -107.15511 36008 ft 448 kts 325°
2026-05-06 02:05 24.39242 -107.19393 36007 ft 448 kts 325°
2026-05-06 02:06 24.44363 -107.23277 36006 ft 447 kts 325°
2026-05-06 02:06 24.49478 -107.27165 36001 ft 447 kts 325°
2026-05-06 02:07 24.54586 -107.31052 36003 ft 447 kts 325°
2026-05-06 02:07 24.59691 -107.34939 35996 ft 446 kts 325°
2026-05-06 02:08 24.64795 -107.38830 35993 ft 446 kts 325°
2026-05-06 02:08 24.69893 -107.42719 35995 ft 446 kts 325°
2026-05-06 02:09 24.74990 -107.46612 35991 ft 446 kts 325°
2026-05-06 02:09 24.79916 -107.50756 35994 ft 446 kts 321°
2026-05-06 02:10 24.84775 -107.54996 35993 ft 446 kts 321°
2026-05-06 02:10 24.89283 -107.58928 35993 ft 446 kts 321°
2026-05-06 02:11 24.94143 -107.63177 35994 ft 446 kts 321°
2026-05-06 02:11 24.99004 -107.67432 35997 ft 446 kts 321°
2026-05-06 02:12 25.03865 -107.71691 36002 ft 446 kts 321°
2026-05-06 02:12 25.08727 -107.75956 36000 ft 447 kts 321°
2026-05-06 02:13 25.13590 -107.80221 35999 ft 447 kts 321°
2026-05-06 02:13 25.18456 -107.84492 36000 ft 447 kts 321°
2026-05-06 02:14 25.23326 -107.88769 35996 ft 447 kts 321°
2026-05-06 02:14 25.28192 -107.93049 36003 ft 447 kts 321°
2026-05-06 02:15 25.33060 -107.97336 36005 ft 447 kts 321°
2026-05-06 02:15 25.37927 -108.01629 36001 ft 448 kts 321°
2026-05-06 02:16 25.42792 -108.05925 36006 ft 448 kts 321°
2026-05-06 02:16 25.46837 -108.09500 36011 ft 448 kts 321°
2026-05-06 02:17 25.51701 -108.13803 36007 ft 448 kts 321°
2026-05-06 02:17 25.57355 -108.18812 36008 ft 448 kts 321°
2026-05-06 02:18 25.61427 -108.22424 36007 ft 448 kts 321°
2026-05-06 02:18 25.66285 -108.26737 36006 ft 447 kts 321°
2026-05-06 02:19 25.71086 -108.31005 36004 ft 447 kts 321°
2026-05-06 02:19 25.75939 -108.35323 36005 ft 447 kts 321°
2026-05-06 02:20 25.83208 -108.41800 35999 ft 447 kts 321°
2026-05-06 02:21 25.88051 -108.46122 35996 ft 446 kts 321°
2026-05-06 02:21 25.92856 -108.50414 35997 ft 446 kts 321°
2026-05-06 02:22 25.97694 -108.54740 35993 ft 446 kts 321°
2026-05-06 02:22 26.02528 -108.59067 35989 ft 446 kts 321°
2026-05-06 02:23 26.07360 -108.63397 35983 ft 446 kts 321°
2026-05-06 02:23 26.12192 -108.67733 35987 ft 446 kts 321°
2026-05-06 02:24 26.16990 -108.72043 35998 ft 446 kts 321°
2026-05-06 02:24 26.21826 -108.76392 36001 ft 447 kts 321°
2026-05-06 02:25 26.26655 -108.80739 36001 ft 447 kts 321°
2026-05-06 02:25 26.31496 -108.85101 35999 ft 447 kts 321°
2026-05-06 02:26 26.36300 -108.89435 36002 ft 447 kts 321°
2026-05-06 02:26 26.41134 -108.93801 36003 ft 447 kts 321°
2026-05-06 02:27 26.45969 -108.98173 36004 ft 448 kts 321°
2026-05-06 02:27 26.50809 -109.02554 36005 ft 448 kts 321°
2026-05-06 02:28 26.55612 -109.06907 36005 ft 448 kts 321°
2026-05-06 02:28 26.60445 -109.11291 36005 ft 448 kts 320°
2026-05-06 02:29 26.65278 -109.15681 36006 ft 447 kts 320°
2026-05-06 02:29 26.70107 -109.20072 36003 ft 447 kts 320°
2026-05-06 02:30 26.74933 -109.24465 36003 ft 447 kts 320°
2026-05-06 02:30 26.79724 -109.28830 36002 ft 447 kts 320°
2026-05-06 02:31 26.84544 -109.33229 36003 ft 447 kts 320°
2026-05-06 02:31 26.89362 -109.37629 36001 ft 447 kts 320°
2026-05-06 02:32 26.94180 -109.42034 36004 ft 447 kts 320°
2026-05-06 02:32 26.98991 -109.46438 36001 ft 447 kts 320°
2026-05-06 02:33 27.03771 -109.50819 35999 ft 447 kts 320°
2026-05-06 02:33 27.05394 -109.52310 35999 ft 446 kts 320°
2026-05-06 02:34 27.13383 -109.59650 35998 ft 446 kts 320°
2026-05-06 02:34 27.18167 -109.64051 35996 ft 446 kts 320°
2026-05-06 02:35 27.22938 -109.68446 35997 ft 446 kts 320°
2026-05-06 02:35 27.27739 -109.72873 35995 ft 446 kts 320°
2026-05-06 02:36 27.32539 -109.77305 35998 ft 446 kts 320°
2026-05-06 02:36 27.37335 -109.81738 35996 ft 446 kts 320°
2026-05-06 02:37 27.42362 -109.85747 35994 ft 446 kts 328°
2026-05-06 02:37 27.47638 -109.89436 36001 ft 447 kts 328°
2026-05-06 02:38 27.49905 -109.91031 35997 ft 447 kts 328°
2026-05-06 02:38 27.55177 -109.94740 36000 ft 447 kts 328°
2026-05-06 02:39 27.60417 -109.98427 35999 ft 447 kts 328°
2026-05-06 02:39 27.65690 -110.02140 36000 ft 447 kts 328°
2026-05-06 02:40 27.70968 -110.05862 36003 ft 447 kts 328°
2026-05-06 02:40 27.76241 -110.09584 35999 ft 447 kts 327°
2026-05-06 02:41 27.81521 -110.13316 36000 ft 447 kts 327°
2026-05-06 02:41 27.86759 -110.17024 35999 ft 447 kts 327°
2026-05-06 02:42 27.92034 -110.20766 35998 ft 448 kts 327°
2026-05-06 02:42 27.97306 -110.24509 35999 ft 448 kts 327°
2026-05-06 02:43 28.02580 -110.28254 35997 ft 448 kts 327°
2026-05-06 02:43 28.07820 -110.31979 35998 ft 449 kts 327°
2026-05-06 02:44 28.13123 -110.35754 35997 ft 449 kts 327°
2026-05-06 02:44 28.18426 -110.39533 36002 ft 451 kts 327°
2026-05-06 02:45 28.23722 -110.43313 35999 ft 448 kts 327°
2026-05-06 02:45 28.28993 -110.47078 35998 ft 447 kts 327°
2026-05-06 02:46 28.34224 -110.50819 36002 ft 447 kts 327°
2026-05-06 02:46 28.39489 -110.54589 36000 ft 447 kts 327°
2026-05-06 02:47 28.44751 -110.58362 35994 ft 447 kts 327°
2026-05-06 02:47 28.50013 -110.62139 35995 ft 447 kts 327°
2026-05-06 02:48 28.55241 -110.65896 35996 ft 447 kts 327°
2026-05-06 02:48 28.60501 -110.69681 35999 ft 447 kts 327°
2026-05-06 02:49 28.65760 -110.73469 35992 ft 447 kts 327°
2026-05-06 02:49 28.68842 -110.75691 35994 ft 448 kts 327°
2026-05-06 02:50 28.69928 -110.76475 35994 ft 448 kts 327°
2026-05-06 02:50 28.72776 -110.78530 35995 ft 448 kts 327°
2026-05-06 02:51 28.78039 -110.82333 36000 ft 448 kts 327°
2026-05-06 02:51 28.83308 -110.86144 35996 ft 448 kts 327°
2026-05-06 02:52 28.88572 -110.89957 36000 ft 448 kts 327°
2026-05-06 02:52 28.93799 -110.93747 36002 ft 448 kts 327°
2026-05-06 02:53 28.99065 -110.97570 36004 ft 449 kts 327°
2026-05-06 02:53 29.04331 -111.01397 36006 ft 449 kts 327°
2026-05-06 02:54 29.09564 -111.05300 36010 ft 449 kts 323°
2026-05-06 02:54 29.14376 -111.09841 36005 ft 448 kts 320°
2026-05-06 02:55 29.19124 -111.14395 36004 ft 448 kts 320°
2026-05-06 02:55 29.23901 -111.18982 36002 ft 448 kts 320°
2026-05-06 02:56 29.28675 -111.23579 36000 ft 448 kts 320°
2026-05-06 02:56 29.33445 -111.28180 36000 ft 448 kts 320°
2026-05-06 02:57 29.38180 -111.32752 35994 ft 448 kts 320°
2026-05-06 02:57 29.42939 -111.37354 36001 ft 448 kts 319°
2026-05-06 02:58 29.47700 -111.41970 35991 ft 448 kts 319°
2026-05-06 02:58 29.52455 -111.46586 35996 ft 448 kts 319°
2026-05-06 02:59 29.57188 -111.51185 35992 ft 448 kts 319°
2026-05-06 02:59 29.61942 -111.55812 35986 ft 448 kts 319°
2026-05-06 03:00 29.66699 -111.60447 35985 ft 448 kts 319°
2026-05-06 03:00 29.71454 -111.65085 35984 ft 449 kts 319°
2026-05-06 03:01 29.76214 -111.69735 35989 ft 449 kts 319°
2026-05-06 03:01 29.80943 -111.74360 35987 ft 449 kts 319°
2026-05-06 03:02 29.85705 -111.79024 35987 ft 450 kts 319°
2026-05-06 03:02 29.90474 -111.83702 35992 ft 450 kts 319°
2026-05-06 03:03 29.95243 -111.88382 35998 ft 451 kts 319°
2026-05-06 03:03 29.99988 -111.93044 36004 ft 451 kts 319°
2026-05-06 03:04 30.04766 -111.97745 36007 ft 452 kts 319°
2026-05-06 03:04 30.09549 -112.02458 36001 ft 452 kts 319°
2026-05-06 03:05 30.14334 -112.07179 36000 ft 451 kts 319°
2026-05-06 03:05 30.19049 -112.11838 36001 ft 449 kts 319°
2026-05-06 03:06 30.23798 -112.16536 36004 ft 449 kts 319°
2026-05-06 03:06 30.28537 -112.21230 35998 ft 448 kts 319°
2026-05-06 03:07 30.33270 -112.25925 36001 ft 448 kts 319°
2026-05-06 03:07 30.38003 -112.30626 35999 ft 448 kts 319°
2026-05-06 03:08 30.42702 -112.35299 36000 ft 448 kts 319°
2026-05-06 03:08 30.47430 -112.40007 35994 ft 448 kts 319°
2026-05-06 03:09 30.52154 -112.44718 35993 ft 448 kts 319°
2026-05-06 03:09 30.56876 -112.49432 36002 ft 448 kts 319°
2026-05-06 03:10 30.61598 -112.54154 35997 ft 448 kts 319°
2026-05-06 03:10 30.66318 -112.58879 35987 ft 448 kts 319°
2026-05-06 03:11 30.71019 -112.63592 35998 ft 448 kts 319°
2026-05-06 03:11 30.75738 -112.68329 36008 ft 448 kts 319°
2026-05-06 03:12 30.80456 -112.73072 36012 ft 448 kts 319°
2026-05-06 03:12 30.85177 -112.77823 36015 ft 449 kts 319°
2026-05-06 03:13 30.89894 -112.82577 36016 ft 448 kts 319°
2026-05-06 03:13 30.94606 -112.87333 36012 ft 448 kts 319°
2026-05-06 03:14 30.99314 -112.92091 36012 ft 448 kts 319°
2026-05-06 03:14 31.04020 -112.96854 36010 ft 448 kts 319°
2026-05-06 03:15 31.08720 -113.01617 36007 ft 447 kts 319°
2026-05-06 03:15 31.13415 -113.06381 36005 ft 447 kts 319°
2026-05-06 03:16 31.18104 -113.11146 36005 ft 447 kts 319°
2026-05-06 03:16 31.22752 -113.15876 36000 ft 446 kts 319°
2026-05-06 03:17 31.27460 -113.20673 36001 ft 446 kts 319°
2026-05-06 03:17 31.32102 -113.25409 35996 ft 446 kts 319°
2026-05-06 03:18 31.36540 -113.30451 35996 ft 445 kts 310°
2026-05-06 03:18 31.40201 -113.36335 35985 ft 444 kts 303°
2026-05-06 03:19 31.43577 -113.42341 35989 ft 445 kts 303°
2026-05-06 03:19 31.46982 -113.48386 35995 ft 445 kts 303°
2026-05-06 03:20 31.52077 -113.57477 35993 ft 445 kts 303°
2026-05-06 03:20 31.55470 -113.63547 36000 ft 445 kts 303°
2026-05-06 03:21 31.58864 -113.69629 35999 ft 446 kts 303°
2026-05-06 03:21 31.62255 -113.75715 36003 ft 446 kts 303°
2026-05-06 03:22 31.65648 -113.81814 36004 ft 446 kts 303°
2026-05-06 03:22 31.69040 -113.87920 36003 ft 446 kts 303°
2026-05-06 03:23 31.72430 -113.94032 36004 ft 447 kts 303°
2026-05-06 03:23 31.75817 -114.00149 36005 ft 447 kts 303°
2026-05-06 03:24 31.79179 -114.06231 36004 ft 447 kts 303°
2026-05-06 03:24 31.82560 -114.12357 36005 ft 447 kts 303°
2026-05-06 03:25 31.85936 -114.18483 36003 ft 447 kts 303°
2026-05-06 03:25 31.89312 -114.24619 36002 ft 446 kts 302°
2026-05-06 03:26 31.92661 -114.30715 36001 ft 446 kts 302°
2026-05-06 03:26 31.96025 -114.36849 35998 ft 446 kts 302°
2026-05-06 03:27 31.99390 -114.42995 36003 ft 446 kts 302°
2026-05-06 03:27 32.02749 -114.49140 36000 ft 446 kts 302°
2026-05-06 03:28 32.06104 -114.55288 35998 ft 446 kts 302°
2026-05-06 03:28 32.09457 -114.61441 36004 ft 446 kts 302°
2026-05-06 03:29 32.12782 -114.67554 36000 ft 446 kts 302°
2026-05-06 03:29 32.16125 -114.73709 36002 ft 446 kts 302°
2026-05-06 03:30 32.19467 -114.79872 36002 ft 446 kts 302°
2026-05-06 03:30 32.22805 -114.86039 35997 ft 446 kts 302°
2026-05-06 03:31 32.26141 -114.92211 36000 ft 446 kts 302°
2026-05-06 03:31 32.29474 -114.98387 36001 ft 446 kts 302°
2026-05-06 03:32 32.32805 -115.04568 35998 ft 446 kts 302°
2026-05-06 03:32 32.36134 -115.10755 36002 ft 446 kts 302°
2026-05-06 03:33 32.39460 -115.16947 36000 ft 446 kts 302°
2026-05-06 03:33 32.42785 -115.23146 36002 ft 446 kts 302°
2026-05-06 03:34 32.46103 -115.29340 36003 ft 446 kts 302°
2026-05-06 03:34 32.49401 -115.35509 36001 ft 446 kts 302°
2026-05-06 03:35 32.52718 -115.41723 36005 ft 446 kts 302°
2026-05-06 03:35 32.56051 -115.47978 36002 ft 446 kts 302°
2026-05-06 03:36 32.59338 -115.54155 36005 ft 446 kts 302°
2026-05-06 03:36 32.62644 -115.60379 36002 ft 446 kts 302°
2026-05-06 03:37 32.65944 -115.66603 35999 ft 446 kts 302°